Regional Weather Roundup
Issued by NWS Newport/Morehead, NC

Current Version | Previous Version | Text Only | Print | Product List | Glossary On
Versions: 1 2 3 4 5 6 7 8 9 10 11 12 13 14 15 16 17 18 19 20 21 22 23 24 25 26 27 28 29 30 31 32 33 34 35 36 37 38 39 40 41 42 43 44 45 46 47 48 49 50
000
ASUS42 KMHX 230522
RWRMHX
WEATHER ROUNDUP FOR EASTERN NORTH CAROLINA
NATIONAL WEATHER SERVICE NEWPORT/MOREHEAD CITY NC
100 AM EDT THU OCT 23 2014

NOTE: "FAIR" INDICATES FEW OR NO CLOUDS BELOW 12,000 FEET
WITH NO SIGNIFICANT WEATHER AND/OR OBSTRUCTIONS TO VISIBILITY

NCZ015>017-031-032-045>047-102-103-230600-
NORTH COAST

CITY           SKY/WX    TMP DP  RH WIND       PRES   REMARKS
EDENTON        MOCLDY    54  46  76 NW13      29.93F
ELIZABETH CITY CLOUDY    57  46  66 NW12      29.90F
KITTY HAWK     CLOUDY    56  49  79 NW9G16    29.87S
MANTEO         CLOUDY    56  48  76 NW13G21   29.89S

$$

NCZ045>047-081-094-103-104-230600-
CENTRAL COAST

CITY           SKY/WX    TMP DP  RH WIND       PRES   REMARKS
FRISCO         CLOUDY    57  49  74 NW15G24   29.91S
SWANQUARTER      N/A     55 N/A N/A NW13G24   29.91S

$$

NCZ095-097-098-100-101-230600-
SOUTHERN COAST

CITY           SKY/WX    TMP DP  RH WIND       PRES   REMARKS
BEAUFORT       CLEAR     56  49  77 NW15      29.98R
CEDAR ISLAND     N/A     59 N/A N/A W14G30    29.97F
JACKSONVILLE   CLEAR     51  45  79 W8        30.00S
PINEY ISLAND   CLOUDY    58  48  69 W13       29.96R
WILMINGTON     CLEAR     52  44  74 NW7       30.01F


$$

NCZ011>013-027>030-043-044-078>080-089-090>093-098-230600-
COASTAL PLAIN

CITY           SKY/WX    TMP DP  RH WIND       PRES   REMARKS
AHOSKIE        CLOUDY    51  45  78 NW5       29.97S
CLINTON        CLEAR     51  45  80 NW3       30.03S
ELIZABETHTOWN  CLEAR     52  42  69 NW6       30.03F
GOLDSBORO      CLEAR     52  49  92 W6        29.99S
GREENVILLE     MOCLDY    54  46  76 NW5       30.00S
HAVELOCK       PTCLDY    54  47  77 W8        29.99S
KENANSVILLE    CLEAR     50  43  78 CALM      30.02F
KINSTON        CLOUDY    54  47  76 W5        30.00S
NEW BERN       PTCLDY    56  47  71 W7        29.99S
RICHLANDS      CLEAR     52  43  71 W3        30.01S
ROCKY MOUNT    CLEAR     52  45  77 W5        30.00S
WASHINGTON     CLOUDY    55  45  70 NW7       29.97F
WHITEVILLE     CLEAR     52  42  68 CALM      30.03S

$$

AMZ130-135-150-152-154-156-158-170-250-252-270-ANZ085-086-088-633-658-670-230600-
MARINE OBSERVATIONS

STATION/POSITION TIME  TEMP    WIND        PRES    WAVE   SWELL
                       AIR SEA DIR/SP/G            HT/PER HT/PER
                 (UTC) (F)     (DEG/KT/KT) (MB)    (FT/S) (FT/S)
CHESAPEAKE LIGHT 0500   58     340/ 31/ 36 1010.6
64 E VA BEACH    0500   61 69  320/ 29/ 35 1007.8   10/ 9   5/ 9
DUCK             0500   56 68  300/ 19/ 24 1010.7
2 E DUCK         0500                        N/A     6/ 8
10 NE DUCK       0500      69                N/A     8/ 8   2/11
OREGON INLET     0500   56 63  300/ 20/ 24 1011.3
13E OREGON INLT  0500      72                N/A     9/ 7   2/11
HATTERAS CG      0500   59 65  320/ 22/ 27 1013.0
DIAMOND BUOY     0500   60     300/ 21/ 27 1012.2    6/ 5   2/ 9
17 S OCRACOKE    NOT AVBL
CAPE LOOKOUT     0500   58     310/ 13/ 18 1014.6
BEAUFORT LAB     0500   56 68  330/  6/ 11 1014.3
30 SE NEW RIVER  0500   63 75  330/ 19/ 23 1014.4    4/ 4
5 SE WRIGHTSVLE  0500   56 72  330/ 19/ 23   N/A
225 S CAPE HAT   0358   70 78  330/ 19/ 23 1013.8    7/ 7   2/10
41 SE CHARLESTON 0500   67 78  350/ 16/ 21 1016.1    3/ 5   2/10

$$



USA.gov is the U.S. government's official web portal to all federal, state and local government web resources and services.